| time (UTC) | temp F | wind direction | speed MPH | gust MPH | rain 1hr in | rain 24hr in | rain mn in | humidity % | barometer mb |
| 20260502180507 | 66 | 284 | 2.0 | 10.0 | 0.00 | 0.00 | 0.00 | 34 | 1021.0 |
| 20260502170509 | 61 | 321 | 2.0 | 5.0 | 0.00 | 0.00 | 0.00 | 41 | 1021.5 |
| 20260502164010 | 59 | 295 | 2.0 | 5.0 | 0.00 | 0.00 | 0.00 | 42 | 1021.7 |
| 20260502163512 | 59 | 318 | 2.0 | 7.0 | 0.00 | 0.00 | 0.00 | 42 | 1021.7 |
| 20260502163018 | 58 | 261 | 3.0 | 7.0 | 0.00 | 0.00 | 0.00 | 47 | 1021.7 |
| 20260502162503 | 57 | 278 | 3.0 | 6.0 | 0.00 | 0.00 | 0.00 | 50 | 1021.8 |
| 20260502162006 | 56 | 345 | 1.0 | 4.0 | 0.00 | 0.00 | 0.00 | 44 | 1021.7 |
| 20260502161514 | 56 | 331 | 2.0 | 4.0 | 0.00 | 0.00 | 0.00 | 46 | 1021.7 |
| 20260502161006 | 55 | 333 | 2.0 | 6.0 | 0.00 | 0.00 | 0.00 | 49 | 1021.7 |
| 20260502160506 | 55 | 342 | 2.0 | 6.0 | 0.00 | 0.00 | 0.00 | 49 | 1021.7 |
| 20260502152006 | 51 | 257 | 4.0 | 8.0 | 0.00 | 0.00 | 0.00 | 56 | 1021.8 |
| 20260502151515 | 51 | 273 | 3.0 | 8.0 | 0.00 | 0.00 | 0.00 | 56 | 1021.8 |
| 20260502151003 | 52 | 315 | 4.0 | 5.0 | 0.00 | 0.00 | 0.00 | 54 | 1021.6 |
| 20260502150507 | 53 | 236 | 3.0 | 4.0 | 0.00 | 0.00 | 0.00 | 56 | 1021.7 |
| 20260502130513 | 41 | 105 | 1.0 | 3.0 | 0.00 | 0.00 | 0.00 | 54 | 1021.3 |
| 20260502123508 | 39 | 122 | 1.0 | 4.0 | 0.00 | 0.00 | 0.00 | 57 | 1021.3 |
| 20260502123023 | 39 | 91 | 2.0 | 4.0 | 0.00 | 0.00 | 0.00 | 58 | 1021.3 |
| 20260502122508 | 38 | 111 | 2.0 | 3.0 | 0.00 | 0.00 | 0.00 | 58 | 1021.3 |
| 20260502122012 | 38 | 92 | 2.0 | 3.0 | 0.00 | 0.00 | 0.00 | 59 | 1021.3 |
| 20260502121008 | 37 | 101 | 1.0 | 2.0 | 0.00 | 0.00 | 0.00 | 61 | 1021.4 |
| 20260502120504 | 37 | 112 | 1.0 | 2.0 | 0.00 | 0.00 | 0.00 | 62 | 1021.3 |
| 20260502115506 | 37 | 132 | 0.0 | 2.0 | 0.00 | 0.00 | 0.00 | 61 | 1021.3 |
| 20260502115009 | 38 | 132 | 0.0 | 3.0 | 0.00 | 0.00 | 0.00 | 60 | 1021.3 |
| 20260502114516 | 38 | 134 | 2.0 | 3.0 | 0.00 | 0.00 | 0.00 | 60 | 1021.3 |
| 20260502114011 | 38 | 128 | 1.0 | 3.0 | 0.00 | 0.00 | 0.00 | 60 | 1021.3 |
| 20260502113507 | 37 | 131 | 1.0 | 3.0 | 0.00 | 0.00 | 0.00 | 61 | 1021.3 |
| 20260502113023 | 37 | 121 | 2.0 | 2.0 | 0.00 | 0.00 | 0.00 | 61 | 1021.4 |
| 20260502112502 | 37 | 119 | 1.0 | 2.0 | 0.00 | 0.00 | 0.00 | 62 | 1021.5 |
| 20260502112002 | 36 | 126 | 1.0 | 2.0 | 0.00 | 0.00 | 0.00 | 64 | 1021.5 |
| 20260502111504 | 35 | 123 | 1.0 | 2.0 | 0.00 | 0.00 | 0.00 | 65 | 1021.5 |
| 20260502111004 | 35 | 144 | 1.0 | 2.0 | 0.00 | 0.00 | 0.00 | 66 | 1021.6 |
| 20260502110504 | 35 | 144 | 0.0 | 0.0 | 0.00 | 0.00 | 0.00 | 67 | 1021.7 |
| 20260502110009 | 36 | 144 | 0.0 | 2.0 | 0.00 | 0.00 | 0.00 | 65 | 1021.6 |
| 20260502105505 | 36 | 144 | 1.0 | 2.0 | 0.00 | 0.00 | 0.00 | 65 | 1021.6 |
| 20260502105005 | 36 | 144 | 0.0 | 0.0 | 0.00 | 0.00 | 0.00 | 63 | 1021.5 |
| 20260502104521 | 37 | 144 | 0.0 | 0.0 | 0.00 | 0.00 | 0.00 | 63 | 1021.4 |
| 20260502104006 | 37 | 144 | 0.0 | 1.0 | 0.00 | 0.00 | 0.00 | 62 | 1021.4 |
| 20260502103508 | 38 | 144 | 0.0 | 1.0 | 0.00 | 0.00 | 0.00 | 61 | 1021.4 |
| 20260502103018 | 38 | 144 | 0.0 | 2.0 | 0.00 | 0.00 | 0.00 | 59 | 1021.4 |
| 20260502102508 | 39 | 144 | 0.0 | 2.0 | 0.00 | 0.00 | 0.00 | 56 | 1021.4 |
| 20260502102010 | 40 | 130 | 1.0 | 3.0 | 0.00 | 0.00 | 0.00 | 56 | 1021.4 |
| 20260502101542 | 40 | 131 | 1.0 | 4.0 | 0.00 | 0.00 | 0.00 | 55 | 1021.3 |
| 20260502101003 | 40 | 98 | 2.0 | 6.0 | 0.00 | 0.00 | 0.00 | 55 | 1021.3 |
| 20260502100503 | 40 | 117 | 2.0 | 7.0 | 0.00 | 0.00 | 0.00 | 56 | 1021.3 |
| 20260502091523 | 39 | 86 | 0.0 | 2.0 | 0.00 | 0.00 | 0.00 | 59 | 1021.3 |
| 20260502091008 | 39 | 86 | 0.0 | 2.0 | 0.00 | 0.00 | 0.00 | 60 | 1021.4 |
| 20260502090507 | 39 | 86 | 1.0 | 2.0 | 0.00 | 0.00 | 0.00 | 57 | 1021.3 |
| 20260502071516 | 43 | 103 | 0.0 | 3.0 | 0.00 | 0.00 | 0.00 | 52 | 1021.1 |
| 20260502071011 | 44 | 98 | 1.0 | 3.0 | 0.00 | 0.00 | 0.00 | 47 | 1021.0 |
| 20260502070507 | 44 | 105 | 1.0 | 3.0 | 0.00 | 0.00 | 0.00 | 47 | 1021.0 |
| 20260502070022 | 44 | 128 | 0.0 | 3.0 | 0.00 | 0.00 | 0.00 | 48 | 1021.0 |
| 20260502065508 | 43 | 111 | 1.0 | 3.0 | 0.00 | 0.00 | 0.00 | 48 | 1020.8 |
| 20260502065011 | 43 | 114 | 0.0 | 2.0 | 0.00 | 0.00 | 0.00 | 52 | 1020.9 |
| 20260502064524 | 43 | 131 | 0.0 | 0.0 | 0.00 | 0.00 | 0.00 | 50 | 1020.8 |
| 20260502064009 | 43 | 131 | 0.0 | 0.0 | 0.00 | 0.00 | 0.00 | 49 | 1020.7 |
| 20260502063511 | 43 | 131 | 0.0 | 0.0 | 0.00 | 0.00 | 0.00 | 50 | 1020.7 |
| 20260502063037 | 43 | 131 | 0.0 | 0.0 | 0.00 | 0.00 | 0.00 | 50 | 1020.7 |
| 20260502062502 | 44 | 131 | 0.0 | 2.0 | 0.00 | 0.00 | 0.00 | 49 | 1020.7 |
| 20260502062004 | 44 | 131 | 0.0 | 2.0 | 0.00 | 0.00 | 0.00 | 49 | 1020.7 |
| 20260502061512 | 44 | 130 | 1.0 | 2.0 | 0.00 | 0.00 | 0.00 | 50 | 1020.7 |
| 20260502061003 | 44 | 140 | 0.0 | 2.0 | 0.00 | 0.00 | 0.00 | 50 | 1020.7 |
| 20260502060506 | 43 | 136 | 1.0 | 2.0 | 0.00 | 0.00 | 0.00 | 51 | 1020.7 |
| 20260502060017 | 43 | 132 | 1.0 | 2.0 | 0.00 | 0.00 | 0.00 | 55 | 1020.7 |
| 20260502055507 | 43 | 170 | 1.0 | 2.0 | 0.00 | 0.00 | 0.00 | 61 | 1020.7 |
| 20260502055007 | 43 | 254 | 0.0 | 1.0 | 0.00 | 0.00 | 0.00 | 61 | 1020.7 |
| 20260502054522 | 43 | 254 | 0.0 | 2.0 | 0.00 | 0.00 | 0.00 | 58 | 1020.7 |
| 20260502054009 | 43 | 254 | 0.0 | 2.0 | 0.00 | 0.00 | 0.00 | 51 | 1020.8 |
| 20260502053515 | 44 | 243 | 0.0 | 2.0 | 0.00 | 0.00 | 0.00 | 48 | 1020.8 |
| 20260502053024 | 44 | 227 | 0.0 | 2.0 | 0.00 | 0.00 | 0.00 | 51 | 1020.7 |
| 20260502052511 | 44 | 227 | 1.0 | 2.0 | 0.00 | 0.00 | 0.00 | 47 | 1020.7 |
| 20260502052014 | 46 | 110 | 0.0 | 2.0 | 0.00 | 0.00 | 0.00 | 42 | 1020.7 |
| 20260502051530 | 47 | 110 | 0.0 | 2.0 | 0.00 | 0.00 | 0.00 | 40 | 1020.7 |
| 20260502051006 | 47 | 110 | 1.0 | 2.0 | 0.00 | 0.00 | 0.00 | 39 | 1020.7 |
| 20260502050503 | 47 | 110 | 0.0 | 2.0 | 0.00 | 0.00 | 0.00 | 38 | 1020.7 |
| 20260502050015 | 47 | 123 | 1.0 | 2.0 | 0.00 | 0.00 | 0.00 | 39 | 1020.7 |
| 20260502045507 | 47 | 125 | 1.0 | 2.0 | 0.00 | 0.00 | 0.00 | 39 | 1020.7 |
| 20260502045007 | 47 | 125 | 1.0 | 2.0 | 0.00 | 0.00 | 0.00 | 38 | 1020.7 |
| 20260502044520 | 48 | 133 | 0.0 | 3.0 | 0.00 | 0.00 | 0.00 | 38 | 1020.7 |
| 20260502044006 | 48 | 121 | 1.0 | 3.0 | 0.00 | 0.00 | 0.00 | 38 | 1020.7 |
| 20260502043506 | 48 | 122 | 2.0 | 3.0 | 0.00 | 0.00 | 0.00 | 39 | 1020.7 |
| 20260502043024 | 47 | 126 | 1.0 | 3.0 | 0.00 | 0.00 | 0.00 | 39 | 1020.7 |
| 20260502042510 | 48 | 137 | 1.0 | 2.0 | 0.00 | 0.00 | 0.00 | 39 | 1020.7 |
| 20260502042015 | 48 | 137 | 1.0 | 2.0 | 0.00 | 0.00 | 0.00 | 39 | 1020.7 |
| 20260502041528 | 48 | 138 | 1.0 | 2.0 | 0.00 | 0.00 | 0.00 | 38 | 1020.7 |
| 20260502041007 | 49 | 130 | 0.0 | 3.0 | 0.00 | 0.00 | 0.00 | 37 | 1020.7 |
| 20260502040513 | 49 | 129 | 1.0 | 3.0 | 0.00 | 0.00 | 0.00 | 37 | 1020.6 |
| 20260502040013 | 49 | 136 | 2.0 | 3.0 | 0.00 | 0.00 | 0.00 | 38 | 1020.6 |
| 20260502035506 | 49 | 180 | 1.0 | 2.0 | 0.00 | 0.00 | 0.00 | 39 | 1020.5 |
| 20260502035007 | 49 | 169 | 1.0 | 3.0 | 0.00 | 0.00 | 0.00 | 39 | 1020.4 |
| 20260502034525 | 49 | 209 | 1.0 | 4.0 | 0.00 | 0.00 | 0.00 | 40 | 1020.4 |
| 20260502034011 | 50 | 222 | 3.0 | 4.0 | 0.00 | 0.00 | 0.00 | 40 | 1020.3 |
| 20260502033507 | 51 | 182 | 1.0 | 2.0 | 0.00 | 0.00 | 0.00 | 38 | 1020.3 |
| 20260502033024 | 51 | 161 | 1.0 | 2.0 | 0.00 | 0.00 | 0.00 | 38 | 1020.2 |
| 20260502032507 | 52 | 144 | 1.0 | 2.0 | 0.00 | 0.00 | 0.00 | 36 | 1020.2 |
| 20260502032012 | 52 | 144 | 1.0 | 2.0 | 0.00 | 0.00 | 0.00 | 36 | 1020.2 |
| 20260502031528 | 53 | 145 | 0.0 | 3.0 | 0.00 | 0.00 | 0.00 | 33 | 1020.2 |
| 20260502031010 | 54 | 139 | 2.0 | 3.0 | 0.00 | 0.00 | 0.00 | 32 | 1020.1 |
| 20260502030511 | 55 | 128 | 1.0 | 2.0 | 0.00 | 0.00 | 0.00 | 30 | 1020.1 |
| 20260502030030 | 55 | 135 | 1.0 | 2.0 | 0.00 | 0.00 | 0.00 | 29 | 1020.0 |
| 20260502025509 | 56 | 113 | 0.0 | 0.0 | 0.00 | 0.00 | 0.00 | 30 | 1020.0 |
| 20260502025011 | 56 | 113 | 0.0 | 0.0 | 0.00 | 0.00 | 0.00 | 28 | 1020.0 |
| 20260502024514 | 58 | 113 | 0.0 | 0.0 | 0.00 | 0.00 | 0.00 | 25 | 1020.0 |
| 20260502024006 | 58 | 113 | 0.0 | 0.0 | 0.00 | 0.00 | 0.00 | 25 | 1020.0 |
| 20260502023507 | 59 | 113 | 0.0 | 0.0 | 0.00 | 0.00 | 0.00 | 24 | 1020.0 |
| 20260502023023 | 59 | 52 | 0.0 | 0.0 | 0.00 | 0.00 | 0.00 | 23 | 1020.0 |
| 20260502022508 | 59 | 25 | 0.0 | 0.0 | 0.00 | 0.00 | 0.00 | 23 | 1019.9 |
| 20260502022008 | 60 | 9 | 0.0 | 0.0 | 0.00 | 0.00 | 0.00 | 21 | 1019.9 |
| 20260502021522 | 61 | 9 | 0.0 | 0.0 | 0.00 | 0.00 | 0.00 | 20 | 1019.9 |
| 20260502021007 | 62 | 9 | 0.0 | 0.0 | 0.00 | 0.00 | 0.00 | 19 | 1019.9 |
| 20260502020509 | 63 | 9 | 0.0 | 2.0 | 0.00 | 0.00 | 0.00 | 21 | 1019.9 |
| 20260502020035 | 62 | 309 | 0.0 | 2.0 | 0.00 | 0.00 | 0.00 | 21 | 1019.9 |
| 20260502015514 | 63 | 309 | 1.0 | 2.0 | 0.00 | 0.00 | 0.00 | 22 | 1019.9 |
| 20260502015014 | 63 | 346 | 0.0 | 2.0 | 0.00 | 0.00 | 0.00 | 22 | 1019.9 |
| 20260502014528 | 63 | 346 | 0.0 | 4.0 | 0.00 | 0.00 | 0.00 | 22 | 1019.9 |
| 20260502014015 | 63 | 333 | 2.0 | 4.0 | 0.00 | 0.00 | 0.00 | 22 | 1019.8 |
| 20260502013507 | 64 | 341 | 1.0 | 5.0 | 0.00 | 0.00 | 0.00 | 20 | 1019.9 |
| 20260502013017 | 64 | 20 | 3.0 | 5.0 | 0.00 | 0.00 | 0.00 | 21 | 1019.9 |
| 20260502012507 | 64 | 5 | 3.0 | 4.0 | 0.00 | 0.00 | 0.00 | 18 | 1019.9 |
| 20260502012009 | 64 | 5 | 1.0 | 5.0 | 0.00 | 0.00 | 0.00 | 20 | 1019.9 |
| 20260502011525 | 64 | 15 | 3.0 | 5.0 | 0.00 | 0.00 | 0.00 | 19 | 1019.9 |
| 20260502011009 | 64 | 11 | 2.0 | 6.0 | 0.00 | 0.00 | 0.00 | 18 | 1020.0 |
| 20260502010507 | 64 | 15 | 4.0 | 6.0 | 0.00 | 0.00 | 0.00 | 18 | 1020.0 |
| 20260502010025 | 65 | 5 | 2.0 | 5.0 | 0.00 | 0.00 | 0.00 | 19 | 1020.0 |
| 20260502005511 | 65 | 360 | 3.0 | 5.0 | 0.00 | 0.00 | 0.00 | 19 | 1020.0 |
| 20260502005010 | 65 | 360 | 3.0 | 5.0 | 0.00 | 0.00 | 0.00 | 19 | 1020.1 |
| 20260502004529 | 65 | 360 | 1.0 | 7.0 | 0.00 | 0.00 | 0.00 | 20 | 1020.2 |
| 20260502004016 | 65 | 348 | 3.0 | 7.0 | 0.00 | 0.00 | 0.00 | 19 | 1020.2 |
| 20260502003510 | 65 | 5 | 1.0 | 4.0 | 0.00 | 0.00 | 0.00 | 19 | 1020.2 |
| 20260502003030 | 65 | 338 | 2.0 | 6.0 | 0.00 | 0.00 | 0.00 | 18 | 1020.3 |
| 20260502002504 | 65 | 329 | 3.0 | 6.0 | 0.00 | 0.00 | 0.00 | 18 | 1020.3 |
| 20260502002007 | 65 | 9 | 4.0 | 7.0 | 0.00 | 0.00 | 0.00 | 19 | 1020.3 |
| 20260502001523 | 65 | 19 | 4.0 | 7.0 | 0.00 | 0.00 | 0.00 | 18 | 1020.3 |
| 20260502001009 | 65 | 348 | 3.0 | 7.0 | 0.00 | 0.00 | 0.00 | 20 | 1020.3 |
| 20260502000509 | 65 | 296 | 2.0 | 9.0 | 0.00 | 0.00 | 0.00 | 18 | 1020.3 |
| 20260502000028 | 66 | 327 | 5.0 | 9.0 | 0.00 | 0.00 | 0.00 | 20 | 1020.3 |
| 20260501235511 | 65 | 55 | 2.0 | 5.0 | 0.00 | 0.00 | 0.00 | 19 | 1020.3 |
| 20260501235007 | 66 | 330 | 2.0 | 7.0 | 0.00 | 0.00 | 0.00 | 20 | 1020.4 |
| 20260501234530 | 65 | 321 | 3.0 | 9.0 | 0.00 | 0.00 | 0.00 | 20 | 1020.4 |
| 20260501234009 | 65 | 360 | 2.0 | 9.0 | 0.00 | 0.00 | 0.00 | 19 | 1020.3 |
| 20260501233511 | 65 | 268 | 1.0 | 10.0 | 0.00 | 0.00 | 0.00 | 18 | 1020.3 |
| 20260501233030 | 65 | 360 | 4.0 | 10.0 | 0.00 | 0.00 | 0.00 | 21 | 1020.3 |
| 20260501232510 | 65 | 21 | 6.0 | 11.0 | 0.00 | 0.00 | 0.00 | 21 | 1020.4 |
| 20260501232013 | 66 | 337 | 6.0 | 11.0 | 0.00 | 0.00 | 0.00 | 20 | 1020.3 |
| 20260501231519 | 66 | 310 | 4.0 | 6.0 | 0.00 | 0.00 | 0.00 | 23 | 1020.3 |
| 20260501231006 | 65 | 338 | 3.0 | 10.0 | 0.00 | 0.00 | 0.00 | 24 | 1020.3 |
| 20260501230509 | 65 | 352 | 3.0 | 10.0 | 0.00 | 0.00 | 0.00 | 22 | 1020.4 |
| 20260501230034 | 65 | 28 | 2.0 | 10.0 | 0.00 | 0.00 | 0.00 | 24 | 1020.4 |
| 20260501225509 | 66 | 80 | 2.0 | 10.0 | 0.00 | 0.00 | 0.00 | 24 | 1020.5 |
| 20260501225008 | 66 | 350 | 1.0 | 8.0 | 0.00 | 0.00 | 0.00 | 26 | 1020.4 |
| 20260501224529 | 66 | 327 | 3.0 | 9.0 | 0.00 | 0.00 | 0.00 | 26 | 1020.4 |
| 20260501224010 | 65 | 311 | 5.0 | 9.0 | 0.00 | 0.00 | 0.00 | 27 | 1020.4 |
| 20260501223512 | 66 | 21 | 4.0 | 8.0 | 0.00 | 0.00 | 0.00 | 26 | 1020.5 |
| 20260501223028 | 65 | 148 | 1.0 | 9.0 | 0.00 | 0.00 | 0.00 | 25 | 1020.5 |
| 20260501222511 | 65 | 296 | 2.0 | 9.0 | 0.00 | 0.00 | 0.00 | 27 | 1020.6 |
| 20260501222014 | 65 | 322 | 3.0 | 7.0 | 0.00 | 0.00 | 0.00 | 28 | 1020.6 |
| 20260501221528 | 65 | 301 | 3.0 | 5.0 | 0.00 | 0.00 | 0.00 | 26 | 1020.6 |
| 20260501221011 | 65 | 284 | 2.0 | 5.0 | 0.00 | 0.00 | 0.00 | 26 | 1020.7 |
| 20260501220512 | 65 | 327 | 1.0 | 5.0 | 0.00 | 0.00 | 0.00 | 26 | 1020.7 |
| 20260501220051 | 64 | 297 | 1.0 | 4.0 | 0.00 | 0.00 | 0.00 | 26 | 1020.8 |
| 20260501215508 | 64 | 23 | 0.0 | 4.0 | 0.00 | 0.00 | 0.00 | 26 | 1020.9 |
| 20260501215011 | 64 | 49 | 2.0 | 4.0 | 0.00 | 0.00 | 0.00 | 24 | 1021.0 |
| 20260501214528 | 65 | 148 | 2.0 | 4.0 | 0.00 | 0.00 | 0.00 | 27 | 1021.0 |
| 20260501214010 | 64 | 51 | 0.0 | 6.0 | 0.00 | 0.00 | 0.00 | 27 | 1021.1 |
| 20260501213509 | 64 | 181 | 3.0 | 6.0 | 0.00 | 0.00 | 0.00 | 24 | 1021.2 |
| 20260501213030 | 65 | 254 | 3.0 | 8.0 | 0.00 | 0.00 | 0.00 | 31 | 1021.2 |
| 20260501212511 | 65 | 244 | 3.0 | 10.0 | 0.00 | 0.00 | 0.00 | 32 | 1021.4 |
| 20260501212009 | 64 | 276 | 3.0 | 10.0 | 0.00 | 0.00 | 0.00 | 29 | 1021.5 |
| 20260501211528 | 63 | 279 | 2.0 | 10.0 | 0.00 | 0.00 | 0.00 | 26 | 1021.6 |
| 20260501211007 | 64 | 215 | 3.0 | 10.0 | 0.00 | 0.00 | 0.00 | 28 | 1021.7 |
| 20260501210506 | 63 | 281 | 3.0 | 10.0 | 0.00 | 0.00 | 0.00 | 28 | 1021.7 |
| 20260501210021 | 63 | 301 | 3.0 | 11.0 | 0.00 | 0.00 | 0.00 | 32 | 1021.8 |
| 20260501205509 | 63 | 350 | 4.0 | 11.0 | 0.00 | 0.00 | 0.00 | 29 | 1021.8 |
| 20260501205008 | 62 | 16 | 2.0 | 9.0 | 0.00 | 0.00 | 0.00 | 28 | 1021.9 |
| 20260501204525 | 63 | 13 | 2.0 | 9.0 | 0.00 | 0.00 | 0.00 | 32 | 1021.9 |
| 20260501204006 | 63 | 360 | 3.0 | 6.0 | 0.00 | 0.00 | 0.00 | 27 | 1021.9 |
| 20260501203503 | 64 | 348 | 1.0 | 7.0 | 0.00 | 0.00 | 0.00 | 27 | 1021.9 |
| 20260501203012 | 64 | 243 | 5.0 | 7.0 | 0.00 | 0.00 | 0.00 | 29 | 1021.9 |
| 20260501202505 | 64 | 120 | 4.0 | 7.0 | 0.00 | 0.00 | 0.00 | 30 | 1021.9 |
| 20260501202004 | 64 | 220 | 2.0 | 11.0 | 0.00 | 0.00 | 0.00 | 30 | 1021.9 |
| 20260501201520 | 63 | 208 | 4.0 | 11.0 | 0.00 | 0.00 | 0.00 | 34 | 1021.9 |
| 20260501201005 | 63 | 256 | 7.0 | 10.0 | 0.00 | 0.00 | 0.00 | 33 | 1022.0 |
| 20260501200512 | 62 | 312 | 3.0 | 9.0 | 0.00 | 0.00 | 0.00 | 32 | 1022.1 |
| 20260501200020 | 62 | 348 | 4.0 | 8.0 | 0.00 | 0.00 | 0.00 | 29 | 1022.1 |
| 20260501195509 | 62 | 37 | 3.0 | 8.0 | 0.00 | 0.00 | 0.00 | 27 | 1022.0 |
| 20260501195008 | 63 | 260 | 2.0 | 8.0 | 0.00 | 0.00 | 0.00 | 32 | 1022.1 |
| 20260501194524 | 62 | 350 | 3.0 | 9.0 | 0.00 | 0.00 | 0.00 | 30 | 1022.1 |
| 20260501194010 | 62 | 342 | 2.0 | 9.0 | 0.00 | 0.00 | 0.00 | 27 | 1022.1 |
| 20260501193508 | 61 | 211 | 2.0 | 8.0 | 0.00 | 0.00 | 0.00 | 32 | 1022.2 |
| 20260501193036 | 60 | 84 | 3.0 | 10.0 | 0.00 | 0.00 | 0.00 | 28 | 1022.2 |
| 20260501192503 | 61 | 25 | 6.0 | 10.0 | 0.00 | 0.00 | 0.00 | 31 | 1022.3 |
| 20260501192004 | 61 | 11 | 5.0 | 9.0 | 0.00 | 0.00 | 0.00 | 28 | 1022.3 |
| 20260501191516 | 61 | 331 | 1.0 | 7.0 | 0.00 | 0.00 | 0.00 | 29 | 1022.3 |
| 20260501191005 | 62 | 234 | 1.0 | 7.0 | 0.00 | 0.00 | 0.00 | 30 | 1022.3 |
| 20260501190511 | 61 | 255 | 3.0 | 8.0 | 0.00 | 0.00 | 0.00 | 31 | 1022.4 |
| 20260501190020 | 62 | 261 | 4.0 | 8.0 | 0.00 | 0.00 | 0.00 | 32 | 1022.5 |
| 20260501185507 | 61 | 244 | 4.0 | 14.0 | 0.00 | 0.00 | 0.00 | 35 | 1022.5 |
| 20260501185007 | 60 | 321 | 4.0 | 14.0 | 0.00 | 0.00 | 0.00 | 32 | 1022.5 |
| 20260501184527 | 60 | 309 | 4.0 | 9.0 | 0.00 | 0.00 | 0.00 | 31 | 1022.5 |
| 20260501184008 | 61 | 313 | 3.0 | 8.0 | 0.00 | 0.00 | 0.00 | 32 | 1022.6 |
| 20260501183513 | 61 | 213 | 3.0 | 5.0 | 0.00 | 0.00 | 0.00 | 37 | 1022.6 |
| 20260501183024 | 60 | 302 | 1.0 | 7.0 | 0.00 | 0.00 | 0.00 | 34 | 1022.7 |
| 20260501182510 | 60 | 151 | 2.0 | 7.0 | 0.00 | 0.00 | 0.00 | 34 | 1022.7 |
| 20260501182011 | 60 | 229 | 2.0 | 9.0 | 0.00 | 0.00 | 0.00 | 35 | 1022.8 |
| 20260501181533 | 59 | 126 | 4.0 | 9.0 | 0.00 | 0.00 | 0.00 | 33 | 1022.8 |
| 20260501181004 | 60 | 130 | 2.0 | 8.0 | 0.00 | 0.00 | 0.00 | 30 | 1022.8 |